User: anonymous   Login
Location: Acheville
(50.3840°N, 2.8827°E)
Time: 23:50:59
(UTC+00:00)
Language:

FENGYUN 1C DEB - Orbit

View from above orbital plane
View from above orbital plane
View from above satellite
View from above satellite

Ground track
Ground track

The orbit data is extracted from the following two-line orbital elements,

1 30088U 99025QR  23033.52215383  .00000757  00000-0  23612-3 0  9990
2 30088  98.3074  46.2095 0215920 119.2656  30.6572 14.31021671837138
Epoch (UTC): 02 February 2023 12:31:54
Eccentricity: 0.0215920
inclination: 98.3074°
perigee height: 633 km
apogee height: 943 km
right ascension of ascending node: 46.2095°
argument of perigee: 119.2656°
revolutions per day: 14.31021671
mean anomaly at epoch: 30.6572°
orbit number at epoch: 83713

The dashed part of the orbit path shows where the satellite is in the earth's shadow,  

DLR